Volver al catálogo

STARLINK-37743

ActivoComunicacionesSSO
NORAD 69339·PAYLOAD·🇺🇸 United States

Lanzado Jun 3, 2026 desde Vandenberg Space Force Base

Loading…

Próximos Pases (próximas 24 horas)

TLE

ActualizadoSource: CelesTrak SupGP

Época: Sep 14, 2026, 21:01 UTC

1 69339C 26122L   26257.87618056  .00015343  00000+0  47637-3 0  2578
2 69339  97.2822 286.5637 0001541  92.5646  12.7950 15.33424580    12

Sigue STARLINK-37743 en tiempo real con AllMySat

Download on the App Store